[[{"header":{"parameterUnit":"m.s-1","parameterCategory":1,"la1":30.2991,"la2":30.254,"lo1":-89.0895,"lo2":-89.0444,"dx":0.0017,"dy":0.0017,"nx":28,"ny":28,"refTime":"2022-11-15T09:00:00:Z","depth":0,"parameterNumber":2,"parameterNumberName":"U-component_of_WINDS"},"data":[0,0,0,0,0,0,0,0,0,0,0,0,0,0,0,0,0,0,0,0,0,0,0,0,0,0,0,0,0,0,0,0,0,0,0,0,0,0,0,0,0,0,0,0,0,0,0,0,0,0,0,0,0,0,0,0,0,0,0.2074,0.2074,0,0.2054,0.2054,0.2054,0.2055,0.2055,0.2056,0.2056,0.2035,0.2034,0.2034,0,0,0,0,0,0,0,0,0,0,0,0,0,0.2112,0.2111,0.2074,0.2074,0.2073,0.2054,0.2054,0.2054,0.2055,0.2055,0.2056,0.2056,0.2035,0.2034,0.2033,0,0,0,0,0,0,0,0,0,0,0,0,0,0.2094,0.2111,0.2074,0.2072,0.2071,0.2055,0.2054,0.2054,0.2055,0.2055,0.2056,0.2056,0.2036,0.2035,0.2033,0.2017,0,0,0.203,0.2029,0,0,0,0,0,0,0,0,0.2095,0.2093,0.2072,0.2072,0.2071,0.2058,0.206,0.2042,0.2055,0.2061,0.2056,0.2056,0.2042,0.204,0.2036,0.2016,0.2015,0.2029,0.2029,0.2028,0.2028,0,0,0,0,0,0,0,0.2097,0.2094,0.2066,0.2072,0.2071,0.2072,0.207,0.2057,0.2049,0.2061,0.2061,0.2058,0.2042,0.2037,0.2035,0.2015,0.2029,0.2028,0.2028,0.2027,0.1982,0.1982,0,0,0,0,0,0,0.2098,0.2095,0.2067,0.2066,0.2085,0.2071,0.2068,0.2062,0.205,0.2048,0.2058,0.2059,0.2039,0.2037,0.2035,0.2015,0.2028,0.2027,0.2026,0.1983,0.1982,0.1982,0,0,0,0,0,0,0.2099,0.2096,0.2068,0.208,0.2077,0.207,0.2062,0.2061,0.2056,0.2048,0.2046,0.2054,0.2039,0.2036,0.2022,0.2015,0.2026,0.2025,0.1983,0.1983,0.1982,0.1977,0,0,0,0,0,0,0.21,0.2096,0.209,0.208,0.2076,0.2055,0.2062,0.206,0.2054,0.2054,0.2044,0.2042,0.2039,0.2024,0.2021,0.2013,0.2024,0.1984,0.1983,0.1982,0.1977,0.1976,0.1975,0,0,0,0,0,0.2102,0.2089,0.2089,0.2086,0.2068,0.2055,0.2052,0.2049,0.2053,0.2047,0.2042,0.2043,0.2016,0.2022,0.2019,0.2011,0.1984,0.1983,0.1982,0.1978,0.1976,0.1975,0,0,0,0,0,0,0.2097,0.2087,0.2088,0.2071,0.2064,0.2055,0.2046,0.2047,0.2038,0.2038,0.2035,0.2033,0.2018,0.2013,0.202,0.1995,0.2001,0.1999,0.1999,0.1997,0.1996,0.1997,0.2023,0,0,0,0,0,0.2094,0.2084,0.2076,0.2062,0.2059,0.2053,0.2047,0.2046,0.2038,0.2034,0.2028,0.202,0.201,0.2003,0.1994,0.1977,0.1975,0.197,0.1969,0.1968,0.1966,0.1958,0.1956,0.1978,0.1978,0.1978,0,0,0.2088,0.2081,0.2075,0.2061,0.2055,0.2045,0.205,0.2039,0.2032,0.2032,0.2018,0.2014,0.2005,0.1989,0.1982,0.1985,0.1959,0.1966,0.1966,0.1964,0.1956,0.1954,0.1952,0.1978,0.1978,0.1978,0,0,0.2071,0.2065,0.2053,0.2048,0.2039,0.2036,0.2033,0.2024,0.2021,0.2007,0.2008,0.1999,0.1981,0.1975,0.197,0.1953,0.1953,0.195,0.1942,0.1934,0.1932,0.193,0.1924,0.1922,0.1948,0.1948,0.1948,0,0.2064,0.2049,0.2047,0.2036,0.203,0.2032,0.202,0.2014,0.2002,0.1998,0.2002,0.1981,0.1974,0.1958,0.1954,0.195,0.1946,0.195,0.1932,0.1931,0.1929,0.1924,0.1921,0.1948,0.1948,0.1948,0.1948,0,0.2041,0.2031,0.2023,0.2012,0.2005,0.1994,0.1991,0.1984,0.1984,0.198,0.1967,0.196,0.1949,0.1945,0.1944,0.1929,0.1931,0.1933,0.1939,0.1927,0.1921,0.1919,0.1947,0.1947,0.1947,0.1947,0,0,0.2019,0.2009,0.2006,0.2002,0.1993,0.1985,0.1974,0.1964,0.1959,0.1951,0.1942,0.1928,0.1931,0.1925,0.1923,0.1917,0.1904,0.192,0.192,0.1917,0.1887,0.1885,0.1883,0.1905,0.1904,0.1904,0.1888,0,0.2002,0.1983,0.1982,0.1964,0.1955,0.1957,0.1948,0.1942,0.1939,0.193,0.1927,0.1917,0.1921,0.1918,0.1911,0.1907,0.1898,0.1908,0.1896,0.1896,0.1898,0.188,0.1877,0.1862,0.1886,0.1886,0.1885,0,0.1978,0.1971,0.1953,0.1947,0.1943,0.1934,0.1926,0.1918,0.1911,0.191,0.1904,0.1904,0.1893,0.1899,0.1885,0.1892,0.1887,0.1885,0.1884,0.1882,0.1889,0.1878,0.1858,0.1855,0.1882,0.1882,0.1882,0,0.1964,0.195,0.1938,0.1934,0.1926,0.192,0.1917,0.191,0.1905,0.1898,0.1894,0.1885,0.1881,0.1874,0.1872,0.1877,0.1858,0.1864,0.1856,0.1856,0.1851,0.1851,0.183,0.1849,0.1849,0.1849,0.1849,0,0.1945,0.1934,0.1932,0.1924,0.1912,0.1911,0.1899,0.1896,0.1891,0.1883,0.1884,0.1876,0.1874,0.1866,0.1865,0.1853,0.1851,0.1849,0.1849,0.1849,0.1849,0.1845,0.1846,0.1848,0.1848,0.1848,0.1848,0,0.1927,0.1925,0.1911,0.1906,0.1904,0.1896,0.1891,0.1884,0.1881,0.1871,0.1869,0.1865,0.1856,0.1854,0.1843,0.1842,0.1828,0.1829,0.183,0.183,0.1823,0.1823,0.1798,0.1795,0.1816,0.1815,0.1815,0,0.1914,0.1906,0.1899,0.1894,0.1891,0.1883,0.1878,0.1877,0.1871,0.1864,0.1858,0.1849,0.1842,0.1828,0.1824,0.1816,0.1816,0.1808,0.1815,0.1816,0.1816,0.1817,0.1816,0.1806,0.1806,0.1806,0.1806,0,0.1891,0.1891,0.1884,0.1877,0.1871,0.1865,0.1859,0.1855,0.1853,0.1847,0.1838,0.1833,0.1823,0.1814,0.1806,0.1803,0.1804,0.1804,0.1802,0.1801,0.1803,0.1802,0.1827,0.1804,0.1804,0.1804,0.1804,0.1804,0.1875,0.1869,0.1864,0.1856,0.1852,0.1847,0.184,0.1838,0.183,0.1822,0.1822,0.1813,0.1807,0.1797,0.1793,0.1786,0.1788,0.1785,0.1784,0.1783,0.1783,0.1804,0.1784,0.1785,0.1785,0.1785,0.1785,0,0.1853,0.1851,0.1843,0.1836,0.183,0.1833,0.1827,0.1822,0.1814,0.1809,0.1802,0.1793,0.1785,0.1781,0.1774,0.1768,0.1769,0.1766,0.1767,0.1766,0.1781,0.1784,0.1766,0.1766,0.1766,0.1766,0.1766,0.1766,0.1841,0.183,0.1829,0.1817,0.1814,0.1805,0.1802,0.1797,0.1794,0.1783,0.1777,0.1775,0.1771,0.1763,0.1756,0.1755,0.1752,0.1749,0.1749,0.1763,0.1765,0.1766,0.1769,0.1749,0.1749,0.1734,0.1734,0.1734]},{"header":{"parameterUnit":"m.s-1","parameterCategory":1,"la1":30.2991,"la2":30.254,"lo1":-89.0895,"lo2":-89.0444,"dx":0.0017,"dy":0.0017,"nx":28,"ny":28,"refTime":"2022-11-15T09:00:00:Z","depth":0,"parameterNumber":3,"parameterNumberName":"V-component_of_WINDS"},"data":[0,0,0,0,0,0,0,0,0,0,0,0,0,0,0,0,0,0,0,0,0,0,0,0,0,0,0,0,0,0,0,0,0,0,0,0,0,0,0,0,0,0,0,0,0,0,0,0,0,0,0,0,0,0,0,0,0,0,-7.3361,-7.3362,0,-7.3415,-7.3415,-7.3416,-7.3323,-7.332,-7.3317,-7.3314,-7.3364,-7.3368,-7.3372,0,0,0,0,0,0,0,0,0,0,0,0,0,-7.3172,-7.3176,-7.3361,-7.3362,-7.3362,-7.3415,-7.3416,-7.3416,-7.3323,-7.332,-7.3316,-7.3312,-7.3362,-7.3367,-7.3372,0,0,0,0,0,0,0,0,0,0,0,0,0,-7.3243,-7.3178,-7.3361,-7.3323,-7.332,-7.3415,-7.3416,-7.3416,-7.3324,-7.332,-7.3315,-7.3311,-7.3361,-7.3367,-7.3373,-7.3506,0,0,-7.3393,-7.3395,0,0,0,0,0,0,0,0,-7.3239,-7.325,-7.3327,-7.3325,-7.3322,-7.3358,-7.3367,-7.3446,-7.3325,-7.3322,-7.3314,-7.3308,-7.3365,-7.3371,-7.3391,-7.3509,-7.3511,-7.3393,-7.3397,-7.34,-7.3401,0,0,0,0,0,0,0,-7.3234,-7.3247,-7.3382,-7.3329,-7.3326,-7.3301,-7.3306,-7.3382,-7.3369,-7.3322,-7.3316,-7.3324,-7.3363,-7.3385,-7.3391,-7.3512,-7.3393,-7.3399,-7.3402,-7.3405,-7.3741,-7.3745,0,0,0,0,0,0,-7.3235,-7.3244,-7.338,-7.3384,-7.3268,-7.3308,-7.3313,-7.3351,-7.3368,-7.3366,-7.3328,-7.3319,-7.3377,-7.3384,-7.3393,-7.355,-7.34,-7.3406,-7.3409,-7.3735,-7.3742,-7.3747,0,0,0,0,0,0,-7.3231,-7.3248,-7.3378,-7.3312,-7.3327,-7.3316,-7.3359,-7.3354,-7.3377,-7.3372,-7.3369,-7.3353,-7.3373,-7.3384,-7.3479,-7.355,-7.3408,-7.3414,-7.3729,-7.3737,-7.3744,-7.3865,0,0,0,0,0,0,-7.3226,-7.3247,-7.3299,-7.3314,-7.3331,-7.3466,-7.3363,-7.3359,-7.3389,-7.3378,-7.3395,-7.3394,-7.337,-7.347,-7.3485,-7.3556,-7.3419,-7.3723,-7.3733,-7.3742,-7.3854,-7.3876,-7.3894,0,0,0,0,0,-7.322,-7.333,-7.3302,-7.3319,-7.3395,-7.347,-7.3479,-7.3451,-7.3395,-7.3446,-7.3443,-7.3393,-7.354,-7.3481,-7.3497,-7.3571,-7.3718,-7.373,-7.3741,-7.3846,-7.3871,-7.3893,0,0,0,0,0,0,-7.3321,-7.3331,-7.33,-7.3419,-7.3445,-7.3454,-7.3517,-7.348,-7.352,-7.3509,-7.3471,-7.3476,-7.3578,-7.3584,-7.3517,-7.3701,-7.3619,-7.3635,-7.3693,-7.3718,-7.3737,-7.3733,-7.3425,0,0,0,0,0,-7.3358,-7.3419,-7.3423,-7.3527,-7.3542,-7.3528,-7.3559,-7.3536,-7.356,-7.357,-7.3574,-7.3598,-7.3649,-7.3684,-7.3731,-7.3855,-7.3857,-7.3914,-7.3934,-7.395,-7.3963,-7.4029,-7.4054,-7.3785,-7.3785,-7.3784,0,0,-7.3433,-7.3446,-7.3487,-7.3548,-7.3565,-7.3628,-7.3538,-7.3608,-7.3653,-7.358,-7.367,-7.3674,-7.3698,-7.3809,-7.3857,-7.3817,-7.4038,-7.3964,-7.3977,-7.3982,-7.4043,-7.4068,-7.4091,-7.3793,-7.3791,-7.379,0,0,-7.3602,-7.3619,-7.3707,-7.3727,-7.3755,-7.3745,-7.3766,-7.3782,-7.3782,-7.3873,-7.3819,-7.3872,-7.3961,-7.3981,-7.4002,-7.418,-7.4135,-7.4196,-7.4299,-7.4363,-7.4384,-7.4403,-7.4465,-7.4488,-7.421,-7.421,-7.421,0,-7.3692,-7.3786,-7.3757,-7.3831,-7.3859,-7.3798,-7.3886,-7.3906,-7.3947,-7.3967,-7.3921,-7.4033,-7.4045,-7.4158,-7.4202,-7.4222,-7.4244,-7.4194,-7.4384,-7.4402,-7.4419,-7.4478,-7.4502,-7.4217,-7.4216,-7.4216,-7.4215,0,-7.3894,-7.3961,-7.4028,-7.4072,-7.4108,-7.4189,-7.417,-7.4209,-7.4183,-7.4178,-7.427,-7.4283,-7.4331,-7.4356,-7.4331,-7.4467,-7.4441,-7.439,-7.4308,-7.4452,-7.4507,-7.453,-7.4227,-7.4225,-7.4223,-7.4221,0,0,-7.4128,-7.4156,-7.4181,-7.42,-7.4226,-7.4276,-7.4354,-7.4403,-7.4437,-7.4468,-7.4531,-7.4609,-7.4562,-7.4587,-7.4563,-7.4619,-7.4759,-7.4562,-7.4561,-7.4597,-7.4908,-7.4946,-7.4973,-7.473,-7.4734,-7.4737,-7.4906,0,-7.4296,-7.4432,-7.4409,-7.454,-7.46,-7.4543,-7.461,-7.4633,-7.463,-7.4679,-7.4675,-7.4731,-7.4665,-7.468,-7.4734,-7.4731,-7.482,-7.4718,-7.4786,-7.4789,-7.4782,-7.5001,-7.5041,-7.52,-7.4927,-7.4931,-7.4934,0,-7.451,-7.4551,-7.4689,-7.4707,-7.4731,-7.4792,-7.4835,-7.4884,-7.4908,-7.4901,-7.493,-7.4895,-7.4971,-7.4889,-7.4991,-7.4922,-7.4949,-7.4952,-7.4957,-7.4962,-7.487,-7.5011,-7.525,-7.5274,-7.4967,-7.4965,-7.4962,0,-7.4666,-7.4755,-7.485,-7.4868,-7.489,-7.4935,-7.4946,-7.4966,-7.4997,-7.5034,-7.5053,-7.5099,-7.5123,-7.5158,-7.5136,-7.5078,-7.5242,-7.5158,-7.5238,-7.5239,-7.5274,-7.5272,-7.552,-7.5293,-7.5293,-7.5292,-7.5292,0,-7.4856,-7.4942,-7.492,-7.4978,-7.5073,-7.5044,-7.5138,-7.5142,-7.516,-7.5217,-7.5169,-7.5223,-7.5191,-7.5241,-7.5224,-7.5312,-7.5323,-7.5319,-7.5313,-7.5323,-7.5324,-7.5339,-7.5327,-7.5299,-7.5297,-7.5296,-7.5295,0,-7.5046,-7.5035,-7.5133,-7.5148,-7.5153,-7.5222,-7.5233,-7.5286,-7.528,-7.5352,-7.5367,-7.5357,-7.5414,-7.5396,-7.5457,-7.5445,-7.5556,-7.5537,-7.5549,-7.5544,-7.5624,-7.5617,-7.589,-7.5924,-7.5676,-7.5679,-7.5681,0,-7.5167,-7.5233,-7.5255,-7.529,-7.5306,-7.5363,-7.5395,-7.5369,-7.5404,-7.5437,-7.5486,-7.5539,-7.558,-7.5674,-7.5671,-7.5717,-7.5698,-7.579,-7.5704,-7.5712,-7.5698,-7.5694,-7.57,-7.5807,-7.581,-7.5812,-7.5814,0,-7.5384,-7.5375,-7.5425,-7.5473,-7.5513,-7.5549,-7.558,-7.5611,-7.5587,-7.5628,-7.5687,-7.572,-7.5783,-7.5836,-7.5878,-7.5887,-7.5847,-7.5842,-7.5862,-7.5873,-7.5877,-7.5875,-7.5595,-7.5835,-7.5833,-7.5832,-7.5831,-7.583,-7.5543,-7.5598,-7.5623,-7.5679,-7.5701,-7.5731,-7.5782,-7.5783,-7.5832,-7.5883,-7.5864,-7.5932,-7.5953,-7.6006,-7.6021,-7.6072,-7.6036,-7.6066,-7.6074,-7.6081,-7.6092,-7.587,-7.6079,-7.6079,-7.6078,-7.6078,-7.6077,0,-7.5756,-7.577,-7.5822,-7.5868,-7.5913,-7.5873,-7.5905,-7.5944,-7.6005,-7.603,-7.6072,-7.6139,-7.6191,-7.6192,-7.624,-7.6281,-7.6263,-7.6294,-7.629,-7.6293,-7.6121,-7.6098,-7.6307,-7.6307,-7.6307,-7.6307,-7.6307,-7.6307,-7.5873,-7.5965,-7.5959,-7.6061,-7.6073,-7.614,-7.6162,-7.6189,-7.6209,-7.6287,-7.6331,-7.6332,-7.6347,-7.6395,-7.644,-7.6439,-7.6458,-7.6496,-7.6488,-7.6328,-7.6305,-7.6283,-7.6261,-7.6501,-7.6501,-7.6655,-7.6656,-7.6658]}]]